Location: Gwatt
(46.7204°N, 7.6223°E)
Time: 08:37:46
(UTC+00:00)

Vanguard 3 - Pass Details

Date: 24 January 2021
Orbit: 508 x 3261 km, 33.3° (Epoch: 24 February)

Event Time Altitude Azimuth Distance (km) Brightness Sun altitude
Exits shadow 06:19:42 - 258° (WSW) 4,204 10.3 -7.6°
Reaches altitude 10° 06:21:54 10° 251° (WSW) 3,669 10.0 -7.2°
Maximum altitude 06:31:02 40° 187° (S) 2,903 10.1 -5.7°
Drops below altitude 10° 06:45:33 10° 127° (SE) 5,761 13.2 -3.5°
Sets 06:51:03 0° 121° (ESE) 7,032 14.8 -2.6°
